EN

Hourly Weather Alikanas

Today, 19 January, Tuesday

Time Temperature Precipitation Wind Pressure Humidity
00:00 +8°C° 0.1 mm 3 mps 766 mmHg 64%
01:00 +7°C° 0.1 mm 4 mps 766 mmHg 69%
02:00 +7°C° 0.2 mm 4 mps 766 mmHg 69%
03:00 +7°C° 0.2 mm 5 mps 766 mmHg 70%
04:00 +7°C° 0.2 mm 5 mps 766 mmHg 70%
05:00 +7°C° 0.2 mm 5 mps 766 mmHg 70%
06:00 +7°C° 0.2 mm 5 mps 766 mmHg 70%
07:00 +8°C° 0.2 mm 6 mps 767 mmHg 70%
08:00 +7°C° 0.1 mm 5 mps 767 mmHg 71%
09:00 +7°C° 0.1 mm 5 mps 768 mmHg 73%
10:00 +7°C° 0.1 mm 4 mps 768 mmHg 75%
11:00 +7°C° 0 mm 5 mps 768 mmHg 71%
12:00 +8°C° 0 mm 5 mps 767 mmHg 67%
13:00 +9°C° 0 mm 5 mps 767 mmHg 63%
14:00 +9°C° 0 mm 5 mps 767 mmHg 60%
15:00 +9°C° 0 mm 5 mps 767 mmHg 58%
16:00 +9°C° 0 mm 5 mps 768 mmHg 55%
17:00 +8°C° 0 mm 5 mps 768 mmHg 54%
18:00 +8°C° 0 mm 5 mps 769 mmHg 53%
19:00 +7°C° 0 mm 5 mps 769 mmHg 52%
20:00 +8°C° 0 mm 5 mps 769 mmHg 52%
21:00 +8°C° 0 mm 4 mps 770 mmHg 52%
22:00 +8°C° 0 mm 4 mps 770 mmHg 51%
23:00 +8°C° 0 mm 4 mps 770 mmHg 53%

Tomorrow, 20 January, Wednesday

Time Temperature Precipitation Wind Pressure Humidity
00:00 +8°C° 0 mm 4 mps 770 mmHg 55%
01:00 +8°C° 0 mm 5 mps 770 mmHg 56%
02:00 +9°C° 0 mm 5 mps 770 mmHg 57%
03:00 +9°C° 0 mm 5 mps 770 mmHg 57%
04:00 +10°C° 0 mm 5 mps 770 mmHg 57%
05:00 +11°C° 0 mm 4 mps 770 mmHg 59%
06:00 +10°C° 0 mm 4 mps 770 mmHg 61%
07:00 +10°C° 0 mm 3 mps 771 mmHg 63%
08:00 +10°C° 0 mm 3 mps 771 mmHg 62%
09:00 +11°C° 0 mm 3 mps 771 mmHg 60%
10:00 +12°C° 0 mm 3 mps 771 mmHg 58%
11:00 +12°C° 0 mm 3 mps 771 mmHg 58%
12:00 +13°C° 0 mm 3 mps 770 mmHg 58%
13:00 +13°C° 0 mm 3 mps 770 mmHg 58%
14:00 +13°C° 0 mm 3 mps 770 mmHg 60%
15:00 +13°C° 0 mm 4 mps 770 mmHg 61%
16:00 +13°C° 0 mm 4 mps 770 mmHg 63%
17:00 +13°C° 0 mm 4 mps 770 mmHg 62%
18:00 +13°C° 0 mm 4 mps 770 mmHg 62%
19:00 +13°C° 0 mm 4 mps 770 mmHg 62%
20:00 +13°C° 0 mm 5 mps 770 mmHg 63%
21:00 +13°C° 0 mm 5 mps 770 mmHg 64%
22:00 +13°C° 0 mm 5 mps 770 mmHg 66%
23:00 +13°C° 0.1 mm 5 mps 770 mmHg 66%

Day after tomorrow, 21 January, Thursday

Time Temperature Precipitation Wind Pressure Humidity
00:00 +13°C° 0.1 mm 5 mps 770 mmHg 66%
01:00 +13°C° 0.1 mm 5 mps 770 mmHg 66%
02:00 +13°C° 0.1 mm 5 mps 769 mmHg 67%
03:00 +13°C° 0.1 mm 5 mps 769 mmHg 67%
04:00 +13°C° 0.1 mm 5 mps 769 mmHg 67%
05:00 +13°C° 0.1 mm 6 mps 769 mmHg 67%
06:00 +13°C° 0.1 mm 6 mps 769 mmHg 66%
07:00 +13°C° 0.1 mm 6 mps 769 mmHg 66%
08:00 +13°C° 0.2 mm 6 mps 769 mmHg 70%
09:00 +14°C° 0.2 mm 7 mps 769 mmHg 73%
10:00 +14°C° 0.2 mm 7 mps 769 mmHg 76%
11:00 +14°C° 0.3 mm 7 mps 769 mmHg 74%
12:00 +15°C° 0.3 mm 7 mps 768 mmHg 72%
13:00 +15°C° 0.3 mm 7 mps 768 mmHg 70%
14:00 +15°C° 0.2 mm 7 mps 768 mmHg 73%
15:00 +14°C° 0.2 mm 7 mps 768 mmHg 75%
16:00 +14°C° 0.2 mm 7 mps 768 mmHg 78%
17:00 +14°C° 0.2 mm 7 mps 768 mmHg 78%
18:00 +14°C° 0.2 mm 7 mps 768 mmHg 77%
19:00 +14°C° 0.2 mm 7 mps 768 mmHg 77%
20:00 +14°C° 0.1 mm 7 mps 768 mmHg 74%
21:00 +14°C° 0.1 mm 7 mps 768 mmHg 72%
22:00 +14°C° 0.1 mm 7 mps 767 mmHg 70%
23:00 +14°C° 0.2 mm 7 mps 767 mmHg 73%

22 January, Friday

Time Temperature Precipitation Wind Pressure Humidity
00:00 +14°C° 0.2 mm 7 mps 767 mmHg 76%
01:00 +14°C° 0.2 mm 7 mps 767 mmHg 79%
02:00 +14°C° 0.4 mm 7 mps 766 mmHg 79%
03:00 +13°C° 0.4 mm 8 mps 766 mmHg 78%
04:00 +13°C° 0.4 mm 8 mps 766 mmHg 78%
05:00 +13°C° 0.5 mm 8 mps 766 mmHg 78%
06:00 +13°C° 0.5 mm 8 mps 766 mmHg 78%
07:00 +13°C° 0.5 mm 8 mps 766 mmHg 78%
08:00 +13°C° 0.3 mm 8 mps 766 mmHg 77%
09:00 +15°C° 0.3 mm 8 mps 765 mmHg 76%
10:00 +15°C° 0.3 mm 8 mps 765 mmHg 74%
11:00 +15°C° 0.2 mm 8 mps 765 mmHg 74%
12:00 +15°C° 0.2 mm 8 mps 764 mmHg 73%
13:00 +15°C° 0.2 mm 8 mps 764 mmHg 73%
14:00 +15°C° 0.2 mm 8 mps 764 mmHg 73%
15:00 +15°C° 0.2 mm 8 mps 763 mmHg 74%
16:00 +15°C° 0.2 mm 8 mps 763 mmHg 74%
17:00 +15°C° 0.2 mm 8 mps 763 mmHg 74%
18:00 +15°C° 0.2 mm 8 mps 763 mmHg 74%
19:00 +15°C° 0.2 mm 8 mps 763 mmHg 74%
20:00 +15°C° 0.2 mm 8 mps 763 mmHg 74%
21:00 +15°C° 0.2 mm 9 mps 763 mmHg 75%
22:00 +15°C° 0.2 mm 9 mps 762 mmHg 75%
23:00 +15°C° 0.2 mm 9 mps 762 mmHg 75%

23 January, Saturday

Time Temperature Precipitation Wind Pressure Humidity
00:00 +15°C° 0.2 mm 9 mps 762 mmHg 75%
01:00 +14°C° 0.2 mm 10 mps 762 mmHg 75%
02:00 +14°C° 0.3 mm 10 mps 761 mmHg 75%
03:00 +14°C° 0.3 mm 10 mps 761 mmHg 75%
04:00 +14°C° 0.3 mm 11 mps 760 mmHg 76%
05:00 +14°C° 0.3 mm 11 mps 760 mmHg 75%
06:00 +14°C° 0.3 mm 11 mps 760 mmHg 75%
07:00 +14°C° 0.3 mm 12 mps 760 mmHg 75%
08:00 +14°C° 0.5 mm 12 mps 759 mmHg 75%
09:00 +14°C° 0.5 mm 12 mps 759 mmHg 75%
10:00 +14°C° 0.5 mm 13 mps 758 mmHg 75%
11:00 +14°C° 0.5 mm 13 mps 758 mmHg 73%
12:00 +15°C° 0.5 mm 14 mps 757 mmHg 71%
13:00 +15°C° 0.5 mm 15 mps 756 mmHg 70%
14:00 +15°C° 2 mm 14 mps 755 mmHg 72%
15:00 +14°C° 2 mm 14 mps 754 mmHg 75%
16:00 +14°C° 2 mm 14 mps 754 mmHg 78%
17:00 +14°C° 0.4 mm 12 mps 754 mmHg 78%
18:00 +14°C° 0.4 mm 11 mps 754 mmHg 79%
19:00 +13°C° 0.4 mm 10 mps 754 mmHg 79%
20:00 +13°C° 0.4 mm 12 mps 755 mmHg 76%
21:00 +13°C° 0.4 mm 13 mps 755 mmHg 74%
22:00 +13°C° 0.4 mm 14 mps 756 mmHg 72%
23:00 +13°C° 0 mm 12 mps 756 mmHg 72%

24 January, Sunday

Time Temperature Precipitation Wind Pressure Humidity
00:00 +13°C° 0 mm 11 mps 757 mmHg 72%
01:00 +13°C° 0 mm 10 mps 757 mmHg 73%
02:00 +13°C° 0 mm 9 mps 757 mmHg 71%
03:00 +13°C° 0 mm 8 mps 757 mmHg 69%
04:00 +14°C° 0 mm 7 mps 758 mmHg 68%
05:00 +14°C° 0 mm 6 mps 758 mmHg 70%
06:00 +13°C° 0 mm 6 mps 758 mmHg 73%
07:00 +13°C° 0 mm 5 mps 759 mmHg 75%
08:00 +14°C° 0 mm 5 mps 759 mmHg 72%
09:00 +14°C° 0 mm 6 mps 759 mmHg 70%
10:00 +15°C° 0 mm 6 mps 760 mmHg 67%
11:00 +15°C° 0.1 mm 6 mps 759 mmHg 68%
12:00 +15°C° 0.1 mm 7 mps 759 mmHg 70%
13:00 +15°C° 0.1 mm 8 mps 759 mmHg 71%
14:00 +15°C° 0 mm 8 mps 759 mmHg 72%
15:00 +15°C° 0 mm 8 mps 758 mmHg 73%
16:00 +15°C° 0 mm 8 mps 758 mmHg 74%
17:00 +15°C° 0.3 mm 9 mps 758 mmHg 75%
18:00 +15°C° 0.3 mm 9 mps 758 mmHg 77%
19:00 +15°C° 0.3 mm 9 mps 758 mmHg 79%
20:00 +14°C° 0.2 mm 10 mps 758 mmHg 77%
21:00 +14°C° 0.2 mm 11 mps 757 mmHg 76%
22:00 +14°C° 0.2 mm 11 mps 757 mmHg 75%
23:00 +14°C° 0.1 mm 12 mps 757 mmHg 77%
Show more